Location: Helsinki
(60.1699°N, 24.9384°E)
Time: 21:18:41
(UTC+02:00)

Transit 2A Rocket - Pass Details

Date: 23 September 2023
Orbit: 593 x 903 km, 66.7° (Epoch: 29 November)

Event Time Altitude Azimuth Distance (km) Brightness Sun altitude
Rises 00:31:11 0° 309° (NW) 3,036 8.8 -29.1°
Reaches altitude 10° 00:33:38 10° 304° (NW) 2,074 7.8 -29.2°
Enters shadow 00:35:54 26° 289° (WNW) 1,264 6.3 -29.3°
Maximum altitude 00:38:04 45° 232° (SW) 852 - -29.3°
Drops below altitude 10° 00:42:13 10° 160° (SSE) 1,950 - -29.4°
Sets 00:44:28 0° 154° (SSE) 2,834 - -29.4°
